AirNav   Free Bose QuietComfort 20
 
 684 users online  

48G Gavagan Field Airport
Yale, Michigan, USA

GOING TO YALE?


FAA INFORMATION EFFECTIVE 05 DECEMBER 2019

Location

FAA Identifier: 48G
Lat/Long: 43-06-12.4000N 082-53-24.8000W
43-06.206667N 082-53.413333W
43.1034444,-82.8902222
(estimated)
Elevation: 800 ft. / 244 m (estimated)
Variation: 06W (1985)
From city: 4 miles SW of YALE, MI
Time zone: UTC -5 (UTC -4 during Daylight Saving Time)
Zip code: 48097

Airport Operations

Airport use: Open to the public
Activation date: 10/1975
Control tower: no
ARTCC: CLEVELAND CENTER
FSS: LANSING FLIGHT SERVICE STATION
NOTAMs facility: LAN (NOTAM-D service available)
Attendance: IREG
CALL FOR RY COND.
Wind indicator: yes
Segmented circle: no

Airport Communications

CTAF: 122.9
WX AWOS-3P at D95 (17 nm W): 134.050 (810-664-5038)
WX AWOS-3 at PHN (20 nm SE): 118.375 (810-364-7787)

Nearby radio navigation aids

VOR radial/distance  VOR name  Freq  Var
FNTr084/38.5FLINT VORTAC116.9006W

Airport Services

Powerplant service: NONE
Bottled oxygen: NONE
Bulk oxygen: NONE

Runway Information

Runway 14/32

Dimensions: 1986 x 95 ft. / 605 x 29 m
Surface: turf, in fair condition
SOFT WHEN WET.
Runway edge markings: 14/32 THLD & RY 14 DSPLCD THLD MKD WITH TIRES.
RUNWAY 14  RUNWAY 32
Latitude: 43-06.335000N43-06.078333N
Longitude: 082-53.551667W082-53.275000W
Traffic pattern: leftleft
Displaced threshold: 690 ft.no
Runway end identifier lights: nono
Obstructions: 75 ft. tree, 138 ft. from runway, 133 ft. left of centerline, 1:1 slope to clear
+50 FT TREES 0 FT DSTC 100 FT L; APCH RATIO 0:1 AT DSPLCD THLD 20:1 BASED ON STRAIGHT OUT.
65 ft. trees, 63 ft. right of centerline

Airport Ownership and Management from official FAA records

Ownership: Privately-owned
Owner: ROBERT J. GAVAGAN
13989 FULTON ROAD
LYNN, MI 48097
Phone 586-776-6038
Manager: ROBERT J. GAVAGAN
13989 FULTON RD
LYNN, MI 48097
Phone 586-776-6038.

Airport Operational Statistics

Aircraft based on the field: 1
Single engine airplanes: 1
    
Aircraft operations: 100/year *
50% transient general aviation
50% local general aviation
* for 12-month period ending 31 December 2017

Additional Remarks

NO SNOW REMOVAL.
RY 14/32 HAS 2 FT DITCH ADJ TO RY BOTH SIDES.
FOR CD CTC CLEVELAND ARTCC AT 440-774-0490.

Instrument Procedures

There are no published instrument procedures at 48G.

Some nearby airports with instrument procedures:

77G - Marlette Township Airport (15 nm NW)
D95 - Dupont-Lapeer Airport (17 nm W)
D98 - Romeo State Airport (19 nm S)
KPHN - St Clair County International Airport (20 nm SE)
57D - Ray Community Airport (22 nm S)
 
Loc | Ops | Rwys | IFR | FBO | Links
Com | Nav | Svcs | Stats | Notes
Area around 48G (Gavagan Field Airport)
 
Road maps at: MapQuest Bing Google
 
Aerial photo
WARNING: Photo may not be current or correct
Aerial photo of 48G (Gavagan Field Airport)
Do you have a better or more recent aerial photo of Gavagan Field Airport that you would like to share? If so, please send us your photo.

 
Sectional chart

 
Airport distance calculator
Flying to Gavagan Field Airport? Find the distance to fly.

From to 48G

Sunrise and sunset
Times for 15-Dec-2019
 Local
(UTC-5)
 Zulu
(UTC)
Morning civil twilight07:2512:25
Sunrise07:5712:57
Sunset16:5621:56
Evening civil twilight17:2922:29

Current date and time
Zulu (UTC)  15-Dec-2019 14:13:30
Local (UTC-5)  15-Dec-2019 09:13:30
 
METAR
KD95 
17nm W 
151355Z AUTO 28004KT 10SM OVC060 M01/M06 A2993 RMK AO2 T10141064
KPHN 
20nm SE 
151355Z AUTO 29005KT 10SM SCT027 OVC065 M01/M06 A2993 RMK AO2
CYZR 
26nm E 
151300Z AUTO 30011G17KT 9SM BKN028 OVC065 M01/M06 A2988 RMK RVR MISG SLP127
KMTC 
29nm S 
151356Z 27008KT 10SM FEW026 SCT037 BKN046 BKN060 M01/M03 A2993 RMK AO2A SNB1252E13B30E51 SLP147 P0000 T10071031
KCFS 
32nm NW 
151355Z AUTO 30007KT 7SM -SN SCT018 SCT033 OVC060 M02/M06 A2993 RMK AO2 T10171056
TAF
CYZR 
26nm E 
150838Z 1509/1521 27010G20KT 6SM -SN OVC015 TEMPO 1509/1512 4SM -SN FM151200 30012G22KT P6SM SCT020 TEMPO 1512/1514 BKN020 FM151700 31010G20KT P6SM BKN030 RMK FCST BASED ON AUTO OBS. NXT FCST BY 151400Z
KMTC 
29nm S 
150908Z 1509/1615 30012G18KT 9999 OVC015 620155 QNH2973INS BECMG 1509/1510 31012G18KT 9000 -SN BKN015 620204 QNH2977INS BECMG 1514/1515 29009KT 9999 NSW BKN020 620204 QNH2998INS BECMG 1520/1521 29006KT 9999 SCT020 QNH3007INS TX01/1509Z TNM03/1601Z LAST NO AMDS AFT 1509 NEXT 1511
NOTAMs
Click for the latest NOTAMs
NOTAMs are issued by the DoD/FAA and will open in a separate window not controlled by AirNav.

 

 
 

Would you like to see your business listed on this page?

 If your business provides an interesting product or service to pilots, flight crews, aircraft, or users of the Gavagan Field Airport, you should consider listing it here.  To start the listing process, click on the button below
 
Add a business
 

Other Pages about Gavagan Field Airport

Page from the Michigan Airport Directory (PDF)
 
Update a link
 
Copyright © AirNav, LLC. All rights reserved. Privacy Policy  Contact